Volver al catálogo

THOR ABLESTAR DEB

ActivoPO
NORAD 715·DEBRIS·🇺🇸 United States

Lanzado Dec 5, 1963 desde Vandenberg Space Force Base

Loading…

Próximos Pases (próximas 24 horas)

TLE

ActualizadoSource: Space-Track

Época: Sep 14, 2026, 11:28 UTC

1 00715U 63049E   26257.47812292  .00000582  00000-0  59091-3 0  9994
2 00715  89.9043  76.6527 0027292 254.1576 133.9340 13.75735841115669

Sigue THOR ABLESTAR DEB en tiempo real con AllMySat

Download on the App Store